BAW001 LGAV-EGKK

Flight info

Callsign BAW001
Flight time N/A
Altitude 38000
Route LGAV/03R KOR1E KOR UL613 XANIS DCT DIMIS DCT RODON DCT SIPAL DCT OKLAX DCT PEVAL DCT LAMPO DCT GUNGO DCT SAFFA DCT ELMUR DCT RIPUS DCT DITON DCT HOC DCT LUL DCT RLP DCT ROTSI DCT KOTUN DCT NINAL DCT KESAX DCT KUNAV KUNA1G EGKK/26L
Aircraft A321/M-SDE2E3FGHIJ1RWXY/LB1

Departure

Time N/A
Airport Athens Eleftherios Venizelos International Airport (LGAV)

Arrival

Time 2026-05-03 22:59
Airport London Gatwick Airport (EGKK)
Time Latitude Longitude Altitude Speed Heading
2026-05-03 20:15 39.96391 20.71311 38157 ft 405 kts 323°
2026-05-03 20:15 40.00700 20.66624 38150 ft 405 kts 323°
2026-05-03 20:16 40.05041 20.61897 38151 ft 405 kts 323°
2026-05-03 20:16 40.09359 20.57243 38138 ft 405 kts 324°
2026-05-03 20:17 40.13749 20.52628 38136 ft 404 kts 324°
2026-05-03 20:17 40.18139 20.48029 38134 ft 404 kts 324°
2026-05-03 20:18 40.22494 20.43446 38129 ft 403 kts 324°
2026-05-03 20:18 40.26863 20.38833 38121 ft 402 kts 324°
2026-05-03 20:19 40.31197 20.34248 38120 ft 402 kts 324°
2026-05-03 20:19 40.35555 20.29628 38115 ft 402 kts 324°
2026-05-03 20:20 40.39905 20.25010 38126 ft 403 kts 324°
2026-05-03 20:20 40.44265 20.20373 38108 ft 403 kts 324°
2026-05-03 20:21 40.48589 20.15766 38115 ft 403 kts 324°
2026-05-03 20:21 40.52945 20.11117 38104 ft 403 kts 324°
2026-05-03 20:22 40.57299 20.06462 38108 ft 403 kts 324°
2026-05-03 20:22 40.61626 20.01828 38106 ft 403 kts 324°
2026-05-03 20:23 40.65977 19.97161 38103 ft 403 kts 324°
2026-05-03 20:23 40.70325 19.92488 38100 ft 403 kts 324°
2026-05-03 20:24 40.74647 19.87835 38098 ft 403 kts 324°
2026-05-03 20:24 40.78995 19.83147 38101 ft 403 kts 324°
2026-05-03 20:25 40.83316 19.78479 38083 ft 403 kts 324°
2026-05-03 20:25 40.87665 19.73773 38099 ft 404 kts 324°
2026-05-03 20:26 40.92020 19.69052 38101 ft 404 kts 324°
2026-05-03 20:26 40.96356 19.64341 38106 ft 402 kts 324°
2026-05-03 20:27 41.00664 19.59655 38107 ft 402 kts 324°
2026-05-03 20:27 41.04995 19.54936 38108 ft 402 kts 324°
2026-05-03 20:28 41.09296 19.50241 38107 ft 402 kts 324°
2026-05-03 20:28 41.13617 19.45516 38071 ft 402 kts 324°
2026-05-03 20:29 41.17936 19.40785 38117 ft 403 kts 324°
2026-05-03 20:29 41.22235 19.36067 38122 ft 403 kts 324°
2026-05-03 20:30 41.26559 19.31313 38116 ft 403 kts 324°
2026-05-03 20:30 41.30880 19.26553 38115 ft 403 kts 324°
2026-05-03 20:31 41.35195 19.21793 38118 ft 403 kts 324°
2026-05-03 20:31 41.39481 19.17055 38125 ft 403 kts 324°
2026-05-03 20:32 41.43798 19.12276 38124 ft 403 kts 324°
2026-05-03 20:32 41.48088 19.07439 38125 ft 404 kts 322°
2026-05-03 20:33 41.52290 19.02538 38129 ft 404 kts 322°
2026-05-03 20:33 41.56487 18.97609 38126 ft 403 kts 322°
2026-05-03 20:34 41.60702 18.92664 38125 ft 403 kts 322°
2026-05-03 20:34 41.64923 18.87715 38128 ft 403 kts 322°
2026-05-03 20:35 41.69155 18.82746 38125 ft 404 kts 322°
2026-05-03 20:35 41.73352 18.77810 38100 ft 404 kts 322°
2026-05-03 20:36 41.77561 18.72851 38123 ft 402 kts 321°
2026-05-03 20:36 41.81757 18.67896 38122 ft 401 kts 321°
2026-05-03 20:37 41.85947 18.62941 38121 ft 401 kts 321°
2026-05-03 20:37 41.90112 18.58006 38121 ft 401 kts 321°
2026-05-03 20:38 41.94305 18.53030 38119 ft 403 kts 322°
2026-05-03 20:38 41.98511 18.48029 38118 ft 404 kts 322°
2026-05-03 20:39 42.02719 18.43015 38103 ft 404 kts 321°
2026-05-03 20:39 42.06900 18.38023 38113 ft 401 kts 321°
2026-05-03 20:40 42.10368 18.33878 38108 ft 401 kts 321°
2026-05-03 20:40 42.14535 18.28887 38108 ft 400 kts 321°
2026-05-03 20:41 42.18705 18.23885 38111 ft 402 kts 321°
2026-05-03 20:41 42.22891 18.18855 38105 ft 403 kts 321°
2026-05-03 20:42 42.27057 18.13837 38103 ft 403 kts 321°
2026-05-03 20:42 42.31243 18.08787 38103 ft 403 kts 321°
2026-05-03 20:43 42.35420 18.03738 38100 ft 403 kts 321°
2026-05-03 20:43 42.39612 17.98662 38103 ft 403 kts 321°
2026-05-03 20:44 42.43771 17.93616 38103 ft 404 kts 321°
2026-05-03 20:44 42.47965 17.88519 38102 ft 405 kts 321°
2026-05-03 20:45 42.52155 17.83416 38103 ft 405 kts 321°
2026-05-03 20:45 42.56343 17.78306 38103 ft 405 kts 321°
2026-05-03 20:46 42.60519 17.73202 38082 ft 407 kts 321°
2026-05-03 20:46 42.64753 17.68020 38109 ft 411 kts 321°
2026-05-03 20:47 42.69035 17.62767 38097 ft 416 kts 321°
2026-05-03 20:47 42.73310 17.57509 38096 ft 416 kts 321°
2026-05-03 20:48 42.77605 17.52212 38099 ft 415 kts 321°
2026-05-03 20:48 42.81888 17.46927 38104 ft 415 kts 321°
2026-05-03 20:49 42.86172 17.41631 38103 ft 415 kts 321°
2026-05-03 20:49 42.90425 17.36362 38101 ft 414 kts 321°
2026-05-03 20:50 42.94686 17.31073 38096 ft 413 kts 321°
2026-05-03 20:50 42.98939 17.25783 38103 ft 413 kts 321°
2026-05-03 20:51 43.03184 17.20492 38099 ft 413 kts 321°
2026-05-03 20:51 43.07415 17.15209 38102 ft 413 kts 321°
2026-05-03 20:52 43.11669 17.09885 38099 ft 413 kts 320°
2026-05-03 20:52 43.15827 17.04497 38068 ft 415 kts 318°
2026-05-03 20:53 43.19892 16.98851 38108 ft 416 kts 317°
2026-05-03 20:53 43.23949 16.93144 38108 ft 417 kts 317°
2026-05-03 20:54 43.27985 16.87487 38102 ft 417 kts 317°
2026-05-03 20:54 43.34088 16.78957 38100 ft 416 kts 317°
2026-05-03 20:55 43.38153 16.73268 38096 ft 417 kts 317°
2026-05-03 20:55 43.42190 16.67605 38091 ft 418 kts 316°
2026-05-03 20:56 43.46277 16.61859 38088 ft 420 kts 316°
2026-05-03 20:56 43.50363 16.56100 38082 ft 420 kts 316°
2026-05-03 20:57 43.54418 16.50374 38084 ft 420 kts 316°
2026-05-03 20:57 43.58499 16.44600 38075 ft 420 kts 316°
2026-05-03 20:58 43.62582 16.38811 38087 ft 420 kts 316°
2026-05-03 20:58 43.66633 16.33058 38079 ft 420 kts 316°
2026-05-03 20:59 43.70708 16.27258 38092 ft 420 kts 315°
2026-05-03 20:59 43.74784 16.21442 38091 ft 420 kts 315°
2026-05-03 21:00 43.78169 16.16604 38092 ft 420 kts 315°
2026-05-03 21:00 43.82891 16.09841 38091 ft 420 kts 315°
2026-05-03 21:01 43.86868 16.03891 38095 ft 421 kts 310°
2026-05-03 21:01 43.90471 15.97475 38094 ft 422 kts 309°
2026-05-03 21:02 43.93999 15.90951 38094 ft 422 kts 308°
2026-05-03 21:02 43.97508 15.84403 38102 ft 422 kts 308°
2026-05-03 21:03 44.00999 15.77892 38098 ft 422 kts 308°
2026-05-03 21:03 44.04513 15.71338 38098 ft 422 kts 308°
2026-05-03 21:04 44.08020 15.64785 38103 ft 420 kts 308°
2026-05-03 21:04 44.11505 15.58260 38102 ft 420 kts 308°
2026-05-03 21:05 44.14976 15.51746 38102 ft 421 kts 308°
2026-05-03 21:05 44.18458 15.45195 38103 ft 421 kts 308°
2026-05-03 21:06 44.21928 15.38654 38100 ft 420 kts 308°
2026-05-03 21:06 44.25396 15.32101 38102 ft 420 kts 308°
2026-05-03 21:07 44.28860 15.25539 38102 ft 419 kts 308°
2026-05-03 21:07 44.32320 15.18971 38098 ft 419 kts 307°
2026-05-03 21:08 44.35756 15.12435 38098 ft 419 kts 307°
2026-05-03 21:08 44.39205 15.05857 38105 ft 418 kts 307°
2026-05-03 21:09 44.42650 14.99272 38090 ft 419 kts 307°
2026-05-03 21:09 44.46072 14.92718 38091 ft 419 kts 307°
2026-05-03 21:10 44.49510 14.86117 38088 ft 419 kts 307°
2026-05-03 21:10 44.52947 14.79505 38106 ft 419 kts 307°
2026-05-03 21:11 44.56381 14.72881 38102 ft 419 kts 307°
2026-05-03 21:11 44.59788 14.66295 38090 ft 419 kts 307°
2026-05-03 21:12 44.63213 14.59659 38096 ft 419 kts 307°
2026-05-03 21:12 44.66639 14.53007 38092 ft 420 kts 307°
2026-05-03 21:13 44.70061 14.46346 38085 ft 419 kts 307°
2026-05-03 21:13 44.73469 14.39696 38097 ft 418 kts 307°
2026-05-03 21:14 44.76851 14.33082 38103 ft 418 kts 306°
2026-05-03 21:14 44.80250 14.26419 38108 ft 418 kts 306°
2026-05-03 21:15 44.83638 14.19765 38110 ft 418 kts 306°
2026-05-03 21:15 44.87012 14.13119 38100 ft 415 kts 306°
2026-05-03 21:16 44.90348 14.06535 38118 ft 414 kts 306°
2026-05-03 21:16 44.93702 13.99900 38114 ft 416 kts 306°
2026-05-03 21:17 44.96502 13.94351 38108 ft 416 kts 306°
2026-05-03 21:17 45.00435 13.86536 38090 ft 416 kts 306°
2026-05-03 21:18 45.03754 13.79923 38097 ft 414 kts 306°
2026-05-03 21:18 45.07090 13.73262 38103 ft 414 kts 306°
2026-05-03 21:19 45.10421 13.66595 38106 ft 414 kts 306°
2026-05-03 21:19 45.13727 13.59963 38099 ft 414 kts 306°
2026-05-03 21:20 45.17057 13.53270 38112 ft 415 kts 306°
2026-05-03 21:20 45.20371 13.46591 38106 ft 416 kts 305°
2026-05-03 21:21 45.23701 13.39863 38098 ft 416 kts 305°
2026-05-03 21:21 45.27025 13.33132 38096 ft 416 kts 305°
2026-05-03 21:22 45.30348 13.26388 38098 ft 416 kts 305°
2026-05-03 21:22 45.33755 13.19718 38100 ft 418 kts 307°
2026-05-03 21:23 45.37231 13.13148 38095 ft 418 kts 307°
2026-05-03 21:23 45.40737 13.06522 38095 ft 418 kts 307°
2026-05-03 21:24 45.44237 12.99864 38103 ft 418 kts 306°
2026-05-03 21:24 45.47692 12.93256 38100 ft 418 kts 306°
2026-05-03 21:25 45.51171 12.86586 38091 ft 419 kts 306°
2026-05-03 21:25 45.54645 12.79907 38090 ft 419 kts 306°
2026-05-03 21:26 45.57534 12.74341 38104 ft 419 kts 306°
2026-05-03 21:26 45.61010 12.67632 38093 ft 419 kts 306°
2026-05-03 21:27 45.64475 12.60928 38092 ft 419 kts 306°
2026-05-03 21:27 45.67914 12.54261 38103 ft 419 kts 305°
2026-05-03 21:28 45.71371 12.47539 38088 ft 419 kts 305°
2026-05-03 21:28 45.74829 12.40801 38097 ft 419 kts 305°
2026-05-03 21:29 45.78282 12.34055 38099 ft 419 kts 305°
2026-05-03 21:29 45.81731 12.27303 38109 ft 419 kts 304°
2026-05-03 21:30 45.85154 12.20584 38105 ft 419 kts 304°
2026-05-03 21:30 45.88590 12.13825 38105 ft 419 kts 304°
2026-05-03 21:31 45.92021 12.07059 38116 ft 419 kts 304°
2026-05-03 21:31 45.95452 12.00278 38112 ft 420 kts 304°
2026-05-03 21:32 45.98879 11.93486 38137 ft 422 kts 304°
2026-05-03 21:32 46.02325 11.86643 38129 ft 422 kts 303°
2026-05-03 21:33 46.05764 11.79796 38120 ft 421 kts 303°
2026-05-03 21:33 46.09179 11.72979 38128 ft 421 kts 303°
2026-05-03 21:34 46.12597 11.66120 38139 ft 421 kts 303°
2026-05-03 21:34 46.16004 11.59231 38138 ft 421 kts 303°
2026-05-03 21:35 46.19400 11.52339 38150 ft 422 kts 303°
2026-05-03 21:35 46.22804 11.45423 38146 ft 421 kts 303°
2026-05-03 21:36 46.26176 11.38556 38146 ft 421 kts 303°
2026-05-03 21:36 46.29569 11.31629 38147 ft 420 kts 303°
2026-05-03 21:37 46.32947 11.24715 38237 ft 421 kts 303°
2026-05-03 21:37 46.36349 11.17734 38243 ft 425 kts 303°
2026-05-03 21:38 46.39736 11.10768 38236 ft 425 kts 303°
2026-05-03 21:38 46.43142 11.03762 38192 ft 425 kts 303°
2026-05-03 21:39 46.46571 10.96726 38198 ft 427 kts 303°
2026-05-03 21:39 46.50009 10.89661 38196 ft 430 kts 303°
2026-05-03 21:40 46.53462 10.82544 38170 ft 430 kts 303°
2026-05-03 21:40 46.56913 10.75419 38185 ft 430 kts 303°
2026-05-03 21:41 46.60335 10.68329 38174 ft 430 kts 303°
2026-05-03 21:41 46.63779 10.61175 38180 ft 431 kts 303°
2026-05-03 21:42 46.67214 10.54021 38160 ft 432 kts 303°
2026-05-03 21:42 46.70658 10.46830 38162 ft 433 kts 303°
2026-05-03 21:43 46.73846 10.39465 38142 ft 431 kts 294°
2026-05-03 21:43 46.76323 10.31509 38138 ft 430 kts 291°
2026-05-03 21:44 46.78647 10.23448 38125 ft 430 kts 291°
2026-05-03 21:44 46.80926 10.15409 38133 ft 431 kts 291°
2026-05-03 21:45 46.83226 10.07313 38122 ft 432 kts 291°
2026-05-03 21:45 46.85537 9.99191 38121 ft 432 kts 291°
2026-05-03 21:46 46.87840 9.91084 38105 ft 432 kts 291°
2026-05-03 21:46 46.90124 9.83017 38098 ft 431 kts 290°
2026-05-03 21:47 46.92412 9.74903 38088 ft 431 kts 290°
2026-05-03 21:47 46.94693 9.66787 38078 ft 431 kts 290°
2026-05-03 21:48 46.96976 9.58638 38082 ft 432 kts 290°
2026-05-03 21:48 46.99235 9.50544 38076 ft 431 kts 290°
2026-05-03 21:49 47.01503 9.42396 38068 ft 432 kts 289°
2026-05-03 21:49 47.03765 9.34236 38066 ft 432 kts 289°
2026-05-03 21:50 47.06024 9.26064 38066 ft 432 kts 289°
2026-05-03 21:50 47.08276 9.17884 38050 ft 431 kts 289°
2026-05-03 21:51 47.10525 9.09709 38064 ft 432 kts 289°
2026-05-03 21:51 47.12761 9.01529 38070 ft 431 kts 289°
2026-05-03 21:52 47.14978 8.93387 38072 ft 432 kts 289°
2026-05-03 21:52 47.17154 8.85158 38074 ft 431 kts 288°
2026-05-03 21:53 47.19256 8.76884 38075 ft 432 kts 288°
2026-05-03 21:53 47.21347 8.68599 38084 ft 431 kts 287°
2026-05-03 21:54 47.23425 8.60371 38072 ft 432 kts 287°
2026-05-03 21:54 47.25518 8.52071 38080 ft 433 kts 287°
2026-05-03 21:55 47.27613 8.43757 38075 ft 432 kts 287°
2026-05-03 21:55 47.29703 8.35449 38074 ft 432 kts 287°
2026-05-03 21:56 47.31783 8.27135 38078 ft 433 kts 287°
2026-05-03 21:56 47.33843 8.18843 38075 ft 434 kts 287°
2026-05-03 21:57 47.35914 8.10475 38075 ft 434 kts 287°
2026-05-03 21:57 47.37980 8.02104 38072 ft 434 kts 287°
2026-05-03 21:58 47.40040 7.93722 38068 ft 434 kts 287°
2026-05-03 21:58 47.42097 7.85324 38065 ft 434 kts 287°
2026-05-03 21:59 47.44134 7.76976 38058 ft 434 kts 287°
2026-05-03 21:59 47.46171 7.68567 38051 ft 433 kts 285°
2026-05-03 22:00 47.47770 7.59998 38049 ft 432 kts 281°
2026-05-03 22:00 47.49223 7.51439 38064 ft 431 kts 281°
2026-05-03 22:01 47.50651 7.42801 38053 ft 432 kts 281°
2026-05-03 22:01 47.52072 7.34175 38051 ft 432 kts 281°
2026-05-03 22:02 47.53494 7.25536 38051 ft 432 kts 281°
2026-05-03 22:02 47.54913 7.16893 38053 ft 432 kts 281°
2026-05-03 22:03 47.56317 7.08299 38056 ft 432 kts 281°
2026-05-03 22:03 47.57724 6.99632 38054 ft 432 kts 281°
2026-05-03 22:04 47.59125 6.90966 38054 ft 432 kts 280°
2026-05-03 22:04 47.60509 6.82355 38050 ft 432 kts 280°
2026-05-03 22:05 47.61894 6.73692 38053 ft 431 kts 280°
2026-05-03 22:05 47.63275 6.65010 38050 ft 432 kts 280°
2026-05-03 22:06 47.64646 6.56346 38048 ft 431 kts 280°
2026-05-03 22:06 47.66012 6.47672 38044 ft 431 kts 280°
2026-05-03 22:07 47.67361 6.39050 38042 ft 431 kts 280°
2026-05-03 22:07 47.68718 6.30377 38066 ft 432 kts 281°
2026-05-03 22:08 47.70383 6.21773 38035 ft 433 kts 284°
2026-05-03 22:08 47.71930 6.14683 38035 ft 433 kts 284°
2026-05-03 22:09 47.73789 6.06174 38028 ft 433 kts 284°
2026-05-03 22:10 47.76505 5.93409 38028 ft 433 kts 284°
2026-05-03 22:10 47.78298 5.84846 38025 ft 432 kts 283°
2026-05-03 22:11 47.80081 5.76291 38021 ft 432 kts 283°
2026-05-03 22:11 47.81859 5.67730 38025 ft 432 kts 283°
2026-05-03 22:12 47.83617 5.59230 38023 ft 432 kts 283°
2026-05-03 22:12 47.85384 5.50657 38017 ft 432 kts 283°
2026-05-03 22:13 47.87144 5.42077 38016 ft 433 kts 282°
2026-05-03 22:13 47.88887 5.33545 38015 ft 434 kts 282°
2026-05-03 22:14 47.91165 5.25168 38013 ft 441 kts 296°
2026-05-03 22:14 47.94903 5.17805 38009 ft 448 kts 306°
2026-05-03 22:15 47.99049 5.10893 38004 ft 450 kts 307°
2026-05-03 22:15 48.03304 5.03982 37998 ft 452 kts 307°
2026-05-03 22:16 48.07548 4.97025 37998 ft 452 kts 307°
2026-05-03 22:16 48.11761 4.90049 37988 ft 452 kts 307°
2026-05-03 22:17 48.15941 4.83087 37990 ft 452 kts 306°
2026-05-03 22:17 48.20137 4.76076 37980 ft 452 kts 306°
2026-05-03 22:18 48.24340 4.69039 37990 ft 452 kts 306°
2026-05-03 22:18 48.28523 4.62015 37972 ft 455 kts 306°
2026-05-03 22:19 48.32746 4.54908 37974 ft 455 kts 306°
2026-05-03 22:19 48.36960 4.47799 37983 ft 455 kts 306°
2026-05-03 22:20 48.41173 4.40671 37973 ft 455 kts 306°
2026-05-03 22:20 48.45378 4.33536 37968 ft 455 kts 306°
2026-05-03 22:21 48.49550 4.26439 37973 ft 455 kts 307°
2026-05-03 22:21 48.53756 4.19264 37969 ft 456 kts 306°
2026-05-03 22:22 48.57940 4.12110 37975 ft 456 kts 306°
2026-05-03 22:22 48.62137 4.04912 37965 ft 455 kts 306°
2026-05-03 22:23 48.66323 3.97710 37961 ft 455 kts 306°
2026-05-03 22:23 48.70507 3.90494 37964 ft 455 kts 306°
2026-05-03 22:24 48.74792 3.83449 37965 ft 457 kts 310°
2026-05-03 22:24 48.79340 3.76704 37962 ft 459 kts 311°
2026-05-03 22:25 48.83945 3.69973 37964 ft 458 kts 311°
2026-05-03 22:25 48.88489 3.63246 37961 ft 458 kts 310°
2026-05-03 22:26 48.93036 3.56442 37961 ft 458 kts 310°
2026-05-03 22:26 48.97575 3.49618 37972 ft 458 kts 310°
2026-05-03 22:27 49.02110 3.42781 37959 ft 458 kts 310°
2026-05-03 22:27 49.06644 3.35929 37958 ft 459 kts 310°
2026-05-03 22:28 49.11150 3.29104 37956 ft 459 kts 310°
2026-05-03 22:28 49.15683 3.22220 37958 ft 459 kts 310°
2026-05-03 22:29 49.20214 3.15319 37960 ft 459 kts 310°
2026-05-03 22:29 49.24739 3.08410 37967 ft 459 kts 310°
2026-05-03 22:30 49.29225 3.01539 37956 ft 459 kts 310°
2026-05-03 22:30 49.33745 2.94599 37958 ft 459 kts 310°
2026-05-03 22:31 49.38227 2.87695 37957 ft 459 kts 310°
2026-05-03 22:31 49.42733 2.80738 37955 ft 459 kts 310°
2026-05-03 22:32 49.47237 2.73765 37958 ft 459 kts 310°
2026-05-03 22:32 49.51734 2.66782 37964 ft 459 kts 310°
2026-05-03 22:33 49.56211 2.59811 37959 ft 461 kts 310°
2026-05-03 22:33 49.60717 2.52734 37956 ft 460 kts 308°
2026-05-03 22:34 49.64922 2.45373 37959 ft 458 kts 306°
2026-05-03 22:34 49.69010 2.37810 37954 ft 458 kts 305°
2026-05-03 22:35 49.73098 2.30251 37958 ft 458 kts 306°
2026-05-03 22:35 49.77208 2.22701 37859 ft 459 kts 306°
2026-05-03 22:35 49.79269 2.18924 37590 ft 460 kts 306°
2026-05-03 22:36 49.81333 2.15139 37322 ft 460 kts 305°
2026-05-03 22:36 49.83403 2.11340 37052 ft 460 kts 305°
2026-05-03 22:36 49.85469 2.07542 36800 ft 460 kts 304°
2026-05-03 22:36 49.87532 2.03744 36539 ft 460 kts 304°
2026-05-03 22:37 49.89564 1.99996 36289 ft 459 kts 304°
2026-05-03 22:37 49.91620 1.96198 36039 ft 459 kts 304°
2026-05-03 22:37 49.93673 1.92398 35791 ft 459 kts 303°
2026-05-03 22:37 49.95722 1.88600 35500 ft 458 kts 303°
2026-05-03 22:38 49.97771 1.84794 34944 ft 458 kts 302°
2026-05-03 22:38 49.99810 1.80976 34253 ft 458 kts 301°
2026-05-03 22:38 50.01847 1.77152 33402 ft 459 kts 302°
2026-05-03 22:38 50.03872 1.73375 32619 ft 459 kts 302°
2026-05-03 22:39 50.05922 1.69564 32139 ft 460 kts 303°
2026-05-03 22:39 50.08241 1.66038 31602 ft 471 kts 312°
2026-05-03 22:39 50.10685 1.62641 31029 ft 471 kts 311°
2026-05-03 22:39 50.13150 1.59244 30448 ft 473 kts 312°
2026-05-03 22:40 50.15635 1.55845 29827 ft 474 kts 312°
2026-05-03 22:40 50.18097 1.52486 29171 ft 476 kts 312°
2026-05-03 22:40 50.20596 1.49076 28570 ft 476 kts 313°
2026-05-03 22:40 50.23098 1.45661 27950 ft 477 kts 313°
2026-05-03 22:41 50.25607 1.42233 27336 ft 478 kts 313°
2026-05-03 22:41 50.28112 1.38805 26710 ft 479 kts 313°
2026-05-03 22:41 50.30628 1.35357 26093 ft 480 kts 314°
2026-05-03 22:41 50.33110 1.31952 25463 ft 481 kts 314°
2026-05-03 22:42 50.35630 1.28489 24814 ft 482 kts 314°
2026-05-03 22:42 50.38152 1.25020 24185 ft 483 kts 314°
2026-05-03 22:42 50.40677 1.21540 23505 ft 483 kts 315°
2026-05-03 22:42 50.43202 1.18058 22600 ft 474 kts 315°
2026-05-03 22:43 50.45601 1.14755 22028 ft 444 kts 315°
2026-05-03 22:43 50.47853 1.11650 21531 ft 416 kts 315°
2026-05-03 22:43 50.49967 1.08727 21119 ft 393 kts 314°
2026-05-03 22:43 50.51940 1.05823 20543 ft 386 kts 310°
2026-05-03 22:44 50.53782 1.02787 19990 ft 381 kts 309°
2026-05-03 22:44 50.55549 0.99802 19501 ft 375 kts 309°
2026-05-03 22:44 50.57316 0.96809 19016 ft 370 kts 309°
2026-05-03 22:44 50.59063 0.93849 18530 ft 366 kts 309°
2026-05-03 22:45 50.60786 0.90931 18058 ft 361 kts 309°
2026-05-03 22:45 50.62490 0.88044 17511 ft 357 kts 309°
2026-05-03 22:45 50.64175 0.85188 16984 ft 353 kts 310°
2026-05-03 22:45 50.65840 0.82363 16472 ft 349 kts 310°
2026-05-03 22:46 50.67448 0.79572 15964 ft 345 kts 308°
2026-05-03 22:46 50.68977 0.76670 15459 ft 341 kts 306°
2026-05-03 22:46 50.70463 0.73766 14966 ft 338 kts 306°
2026-05-03 22:46 50.71933 0.70881 14478 ft 335 kts 306°
2026-05-03 22:47 50.73388 0.68021 13990 ft 333 kts 306°
2026-05-03 22:47 50.74820 0.65209 13490 ft 331 kts 306°
2026-05-03 22:47 50.76262 0.62375 12961 ft 329 kts 306°
2026-05-03 22:47 50.77690 0.59566 12437 ft 326 kts 307°
2026-05-03 22:48 50.79106 0.56778 11924 ft 323 kts 307°
2026-05-03 22:48 50.80510 0.54013 11422 ft 320 kts 307°
2026-05-03 22:48 50.81881 0.51310 10932 ft 317 kts 307°
2026-05-03 22:48 50.83248 0.48612 10428 ft 308 kts 307°
2026-05-03 22:49 50.84563 0.46018 9960 ft 296 kts 307°
2026-05-03 22:49 50.85832 0.43509 9454 ft 288 kts 307°
2026-05-03 22:49 50.87079 0.41040 8930 ft 286 kts 307°
2026-05-03 22:49 50.88316 0.38586 8419 ft 284 kts 307°
2026-05-03 22:50 50.89544 0.36149 8050 ft 282 kts 307°
2026-05-03 22:50 50.90744 0.33793 7961 ft 271 kts 310°
2026-05-03 22:50 50.92175 0.32040 8001 ft 253 kts 330°
2026-05-03 22:50 50.93762 0.30885 7979 ft 250 kts 335°
2026-05-03 22:51 50.95378 0.29823 7973 ft 251 kts 336°
2026-05-03 22:51 50.96997 0.28769 7976 ft 251 kts 336°
2026-05-03 22:51 50.98611 0.27720 7630 ft 250 kts 336°
2026-05-03 22:51 51.00219 0.26673 7188 ft 248 kts 336°
2026-05-03 22:52 51.01816 0.25629 6753 ft 247 kts 336°
2026-05-03 22:52 51.03401 0.24588 6331 ft 246 kts 336°
2026-05-03 22:52 51.04976 0.23549 5889 ft 244 kts 336°
2026-05-03 22:52 51.06522 0.22524 5472 ft 242 kts 336°
2026-05-03 22:53 51.08070 0.21492 5052 ft 240 kts 336°
2026-05-03 22:53 51.09599 0.20465 4641 ft 238 kts 336°
2026-05-03 22:53 51.11119 0.19440 4212 ft 236 kts 336°
2026-05-03 22:53 51.12625 0.18426 3787 ft 234 kts 336°
2026-05-03 22:54 51.14126 0.17418 3366 ft 233 kts 336°
2026-05-03 22:54 51.15554 0.16305 3037 ft 231 kts 322°
2026-05-03 22:54 51.16567 0.14366 2570 ft 229 kts 297°
2026-05-03 22:54 51.17210 0.12054 2155 ft 229 kts 287°
2026-05-03 22:55 51.17447 0.10416 2058 ft 218 kts 277°
2026-05-03 22:55 51.17543 0.08120 2051 ft 198 kts 270°
2026-05-03 22:55 51.17533 0.05986 2046 ft 190 kts 268°
2026-05-03 22:55 51.17492 0.03884 2041 ft 189 kts 268°
2026-05-03 22:56 51.17438 0.01818 2028 ft 189 kts 267°
2026-05-03 22:56 51.17343 -0.00217 1987 ft 176 kts 262°
2026-05-03 22:56 51.17135 -0.02088 2002 ft 169 kts 258°
2026-05-03 22:56 51.16896 -0.03899 1989 ft 163 kts 257°
2026-05-03 22:57 51.16649 -0.05639 1846 ft 159 kts 256°
2026-05-03 22:57 51.16434 -0.07322 1535 ft 151 kts 257°
2026-05-03 22:57 51.16210 -0.08894 1272 ft 146 kts 256°
2026-05-03 22:57 51.15998 -0.10448 1097 ft 138 kts 256°
2026-05-03 22:58 51.15793 -0.11935 899 ft 136 kts 256°
2026-05-03 22:58 51.15596 -0.13392 761 ft 134 kts 257°
2026-05-03 22:58 51.15394 -0.14843 579 ft 134 kts 256°
2026-05-03 22:58 51.15195 -0.16287 376 ft 132 kts 255°
2026-05-03 22:59 51.14998 -0.17700 224 ft 129 kts 256°
2026-05-03 22:59 51.14824 -0.18958 218 ft 102 kts 257°
2026-05-03 22:59 51.14703 -0.19839 211 ft 37 kts 258°
2026-05-03 22:59 51.14653 -0.20217 220 ft 33 kts 259°
2026-05-03 23:00 51.14671 -0.20575 217 ft 29 kts 287°
2026-05-03 23:00 51.14749 -0.20722 216 ft 18 kts 14°
2026-05-03 23:00 51.14855 -0.20628 215 ft 15 kts 43°
2026-05-03 23:00 51.14882 -0.20541 212 ft 0 kts 78°